#timestamp,LO_Frequency,Hit,StdDev 
1597042815.4,286047000.9,N
1597042835.2,286047001.1,N
1597042855.1,286047000.5,N
1597042856.0,286047000.5,N
1597042875.8,286047000.3,N
1597042895.6,286047000.7,N
1597042915.5,286047001.2,N
1597042935.3,286047001.2,N
1597042955.1,286047000.8,N
1597042975.9,286047000.8,N
1597042995.7,286047000.7,N
1597043015.6,286047000.9,N
1597043035.4,286047000.6,N
1597043055.2,286047001.2,N
1597043075.1,286046998.1,N
1597043076.0,286046998.1,N
1597043095.8,286046998.1,N
1597043115.7,286047000.9,N
1597043135.5,286047002.7,N
1597043155.3,286047000.6,N
1597043175.2,286047000.8,N
1597043195.9,286047000.8,N
1597043215.7,286047001.1,N
1597043235.6,286047011.9,Y
1597043255.4,286046998.9,P
1597043275.3,286046998.8,N
1597043295.1,286046998.4,N
1597043296.0,286046998.4,N
1597043315.8,286046998.1,N
1597043335.7,286046998.6,N
1597043355.5,286046998.3,N
1597043375.3,286046998.5,N
1597043395.2,286046998.5,N
1597043415.0,286046998.2,N
1597043415.9,286046998.2,N
1597043435.8,286046998.3,N
1597043455.6,286046998.3,N
1597043475.4,286046998.7,N
1597043495.3,286046998.9,N
1597043515.1,286046999.5,N
1597043535.8,286046998.4,N
1597043555.7,286047001.1,N
1597043575.5,286046998.3,N
1597043595.4,286046998.9,N
1597043615.2,286046999.6,N
1597043635.0,286046997.0,Y
1597043635.9,286046997.0,P
1597043655.8,286046998.8,N
1597043675.6,286046998.3,N
1597043695.4,286046999.4,N
1597043715.3,286046996.7,Y
1597043735.1,286046999.2,P
1597043755.9,286046999.6,N
1597043775.7,286046997.3,P
1597043795.5,286046999.2,N
1597043815.4,286046996.8,Y
1597043835.2,286047000.5,P
1597043855.1,286047000.2,N
1597043856.0,286047000.2,N
1597043875.8,286047000.6,N
1597043895.6,286046998.7,N
1597043915.5,286046999.3,N
1597043935.3,286046999.3,N
1597043955.1,286046999.1,N
1597043975.9,286046999.4,N
1597043995.7,286046998.5,N
1597044015.6,286046998.1,N
1597044035.4,286047000.7,N
1597044055.2,286047001.0,N
1597044075.1,286047000.6,N
1597044095.4,286047001.2,N
1597044115.3,286046998.5,N
1597044135.1,286046999.1,N
1597044136.0,286046999.1,N
1597044155.8,286046999.0,N
1597044175.7,286046999.1,N
1597044195.5,286046996.6,Y
1597044215.4,286046999.4,P
1597044235.2,286046999.5,P
1597044255.0,286046999.5,P
1597044255.9,286046999.5,Y
1597044275.8,286046998.5,P
1597044295.6,286046998.6,N
1597044315.5,286046998.4,P
1597044335.3,286046999.5,N
1597044355.1,286046999.5,N
1597044375.9,286046998.4,Y
1597044395.7,286047000.2,P
1597044415.5,286047000.2,N
1597044435.4,286047000.3,N
1597044455.2,286047002.8,Y
1597044475.1,286047002.5,P
1597044476.0,286047002.5,N
1597044495.8,286047000.2,N
1597044515.6,286047000.4,N
1597044535.5,286046999.9,N
1597044555.3,286047002.2,N
1597044575.2,286047002.1,N
1597044595.9,286047002.5,N
1597044615.7,286047000.4,N
1597044635.6,286047000.7,N
1597044655.4,286047001.0,N
1597044675.2,286047001.1,N
1597044695.1,286047001.0,N
1597044696.0,286047001.0,N
1597044715.8,286046999.4,N
1597044735.7,286046996.9,Y
1597044755.5,286046997.9,P
1597044775.3,286046997.8,N
1597044795.2,286046995.2,P
1597044815.0,286046993.4,Y
1597044815.9,286046993.4,P
1597044835.8,286046995.0,N
1597044855.6,286046996.1,N
1597044875.4,286046996.4,N
1597044895.3,286046995.8,N
1597044915.1,286046996.0,N
1597044935.9,286046995.6,Y
1597044955.7,286046998.4,P
1597044975.5,286046999.3,N
1597044995.4,286046998.9,N
1597045015.2,286046998.3,N
1597045035.0,286046998.3,N
1597045035.9,286046998.3,N
1597045055.8,286047001.1,N
1597045075.6,286046999.0,N
1597045095.5,286046998.5,N
1597045115.3,286047001.2,N
1597045135.1,286046998.7,N
1597045155.9,286046999.4,N
1597045175.7,286046998.2,N
1597045195.5,286046998.6,N
1597045215.4,286047000.3,N
1597045235.2,286047001.1,N
1597045255.0,286046999.8,N
1597045256.0,286046999.8,N
1597045275.8,286047002.1,N
1597045295.6,286047002.5,N
1597045315.5,286047000.0,N
1597045335.3,286046999.7,N
1597045355.1,286047002.7,N
1597045375.9,286047000.1,N
1597045395.7,286047002.4,N
1597045415.5,286047002.5,N
1597045435.4,286047004.3,N
1597045455.2,286047002.0,N
1597045475.1,286047002.0,N
1597045476.0,286047002.0,N
1597045495.8,286047002.1,N
1597045515.6,286047001.5,N
1597045535.5,286047002.2,N
1597045555.3,286047001.8,N
1597045575.2,286047002.2,N
1597045595.9,286047001.4,N
1597045615.7,286047001.6,N
1597045635.6,286047002.1,N
1597045655.4,286047004.4,N
1597045675.2,286047001.7,N
1597045695.1,286047004.3,N
1597045696.0,286047004.3,N
1597045715.8,286047004.0,N
1597045735.7,286047004.2,N
1597045755.5,286047003.4,N
1597045775.3,286047004.0,N
1597045795.2,286047003.2,N
1597045815.0,286047003.1,N
1597045815.9,286047003.1,N
1597045835.8,286047003.2,N
1597045855.6,286047004.2,Y
1597045875.4,286047002.4,P
1597045895.3,286047000.1,N
1597045915.1,286047002.3,N
1597045935.9,286047002.8,N
1597045955.7,286047001.6,N
1597045975.5,286047002.1,N
1597045995.4,286047002.7,Y
1597046015.2,286046999.4,P
1597046035.1,286046998.8,N
1597046036.0,286046998.8,N
1597046055.8,286046998.3,N
1597046075.6,286046998.9,N
1597046095.5,286047001.1,N
1597046115.3,286046998.5,N
1597046135.2,286047001.0,N
1597046155.9,286047001.2,N
1597046175.7,286046998.3,N
1597046195.6,286046998.1,N
1597046215.4,286046998.7,N
1597046235.2,286046998.1,N
1597046255.1,286046998.5,N
1597046256.0,286046998.5,N
1597046275.8,286046998.4,N
1597046295.7,286047000.7,N
1597046315.5,286047000.7,N
1597046335.3,286047000.6,N
1597046355.2,286047000.1,N
1597046375.0,286047000.2,N
1597046375.9,286047000.2,N
1597046395.7,286047000.0,N
